Weather History for KGIC - February, 2014

Change the Weather History Date:

Friday, February 28, 2014

  Actual Average (KLWS) Record (KLWS)
Temperature  
Mean Temperature 34 °F 41 °F  
Max Temperature 36 °F 50 °F 67 °F (1901)
Min Temperature 30 °F 32 °F 9 °F (1960)
Degree Days  
Heating Degree Days 32 24  
Month to date heating degree days 736  
Since 1 July heating degree days 3855  
Cooling Degree Days 0 0  
Month to date cooling degree days 0  
Year to date cooling degree days 0  
Moisture  
Dew Point 31 °F    
Average Humidity 95    
Maximum Humidity 98    
Minimum Humidity 92    
Precipitation  
Precipitation 0.10 in 0.03 in 0.43 in (1974)
Month to date precipitation 0.78  
Year to date precipitation 1.86  
Snow  
Snow 0.00 in 0.00 in 1.70 in (1955)
Month to date snowfall 2.1  
Since 1 July snowfall 9.8  
Snow Depth -    
Sea Level Pressure  
Sea Level Pressure 29.64 in    
Wind  
Wind Speed 2 mph (ENE)    
Max Wind Speed 7 mph    
Max Gust Speed -    
Visibility 2 miles    
Events      
T = Trace of Precipitation, MM = Missing Value Source: NWS Daily Summary

Daily Weather History Graph

Daily Weather History Graph

Search for Another Location

Airport or City:

Trip Planner

Search our weather history database for the weather conditions in past years. The results will help you decide how hot, cold, wet, or windy it might be!

Date:

Astronomy

Feb. 28, 2014 Rise Set
Actual Time 6:24 AM PST 5:29 PM PST
Civil Twilight 5:54 AM PST 5:59 PM PST
Nautical Twilight 5:20 AM PST 6:34 PM PST
Astronomical Twilight 4:45 AM PST 7:09 PM PST
Moon 5:42 AM PST (2/28) 5:13 PM PST (2/28)
Length of Visible Light 12h 04m
Length of Day
11h 04m
Waning Crescent, 0% of the Moon is Illuminated
Feb 28
Waning Crescent
Mar 1
New
Mar 8
First Quarter
Mar 16
Full
Mar 23
Last Quarter

Hourly Weather History & Observations

Time (PST) Temp. Windchill Dew Point Humidity Pressure Visibility Wind Dir Wind Speed Gust Speed Precip Events Conditions
12:15 AM 31.6 °F 28.3 °F 30.2 °F 94% 29.73 in 3.0 mi East 3.5 mph - 0.01 in   Overcast
12:35 AM 31.8 °F - 30.6 °F 95% 29.73 in 2.5 mi Calm Calm - 0.02 in   Overcast
12:55 AM 31.8 °F 27.3 °F 30.6 °F 95% 29.72 in 4.0 mi ENE 4.6 mph - 0.04 in   Overcast
1:15 AM 32.0 °F 27.5 °F 30.7 °F 95% 29.73 in 2.5 mi East 4.6 mph - 0.01 in   Overcast
1:35 AM 32.0 °F 28.7 °F 30.7 °F 95% 29.73 in 2.5 mi East 3.5 mph - 0.04 in   Overcast
1:55 AM 32.0 °F 28.7 °F 30.9 °F 96% 29.73 in 4.0 mi East 3.5 mph - 0.05 in   Overcast
2:15 AM 32.0 °F - 30.9 °F 96% 29.72 in 5.0 mi Calm Calm - N/A   Overcast
2:35 AM 32.0 °F 28.7 °F 30.7 °F 95% 29.71 in 1.0 mi ENE 3.5 mph - N/A   Overcast
2:55 AM 31.8 °F 28.5 °F 30.7 °F 96% 29.71 in 0.5 mi East 3.5 mph - N/A   Overcast
3:15 AM 31.6 °F 28.3 °F 30.2 °F 94% 29.70 in 1.0 mi NE 3.5 mph - N/A   Overcast
3:35 AM 31.6 °F - 30.4 °F 95% 29.71 in 1.0 mi Calm Calm - N/A   Overcast
3:55 AM 31.6 °F 28.3 °F 30.2 °F 94% 29.70 in 0.5 mi NE 3.5 mph - N/A   Overcast
4:15 AM 31.6 °F - 30.2 °F 94% 29.70 in 0.5 mi Calm Calm - N/A   Overcast
4:35 AM 31.5 °F 28.1 °F 30.2 °F 95% 29.70 in 0.5 mi NE 3.5 mph - N/A   Overcast
4:55 AM 31.5 °F - 30.2 °F 95% 29.70 in 0.5 mi Calm Calm - N/A   Overcast
5:20 AM 31.6 °F 27.0 °F 30.2 °F 94% 29.68 in 0.5 mi ENE 4.6 mph - N/A   Overcast
5:35 AM 31.5 °F - 30.2 °F 95% 29.69 in 0.5 mi Calm Calm - N/A   Overcast
5:55 AM 31.5 °F - 30.2 °F 95% 29.68 in 0.5 mi Calm Calm - N/A   Overcast
6:15 AM 31.6 °F - 30.2 °F 94% 29.68 in 0.5 mi Calm Calm - N/A   Overcast
6:35 AM 31.6 °F - 30.2 °F 94% 29.69 in 0.2 mi Calm Calm - N/A   Overcast
6:55 AM 31.6 °F - 30.2 °F 94% 29.69 in 0.2 mi Calm Calm - N/A   Overcast
7:15 AM 31.8 °F - 30.4 °F 94% 29.68 in 0.8 mi Calm Calm - N/A   Overcast
7:35 AM 32.0 °F - 30.9 °F 96% 29.68 in 4.0 mi Calm Calm - N/A   Overcast
7:55 AM 32.0 °F - 31.1 °F 96% 29.68 in 2.5 mi Calm Calm - N/A   Overcast
8:15 AM 32.0 °F - 31.5 °F 98% 29.68 in 2.5 mi Calm Calm - N/A   Overcast
8:35 AM 32.2 °F - 31.5 °F 97% 29.67 in 3.0 mi Calm Calm - N/A   Overcast
8:55 AM 32.2 °F - 31.5 °F 97% 29.68 in 4.0 mi Calm Calm - N/A   Overcast
9:15 AM 32.2 °F - 31.5 °F 97% 29.68 in 5.0 mi Calm Calm - N/A   Overcast
9:35 AM 32.2 °F - 31.5 °F 97% 29.67 in 3.0 mi Calm Calm - 0.01 in   Overcast
9:55 AM 32.5 °F - 31.8 °F 97% 29.67 in 2.5 mi Calm Calm - 0.01 in   Overcast
10:15 AM 32.9 °F - 32.0 °F 96% 29.67 in 3.0 mi Calm Calm - N/A   Overcast
10:35 AM 33.1 °F 30.0 °F 32.0 °F 96% 29.67 in 3.0 mi North 3.5 mph - N/A   Overcast
10:55 AM 32.5 °F - 31.8 °F 97% 29.67 in 5.0 mi Calm Calm - N/A   Overcast
11:15 AM 33.1 °F - 32.0 °F 96% 29.67 in 2.0 mi Calm Calm - N/A   Overcast
11:35 AM 33.1 °F - 32.0 °F 96% 29.66 in 0.8 mi Calm Calm - N/A   Overcast
11:55 AM 33.1 °F - 32.0 °F 96% 29.66 in 4.0 mi Calm Calm - N/A   Overcast
12:15 PM 33.1 °F 30.0 °F 32.0 °F 96% 29.65 in 0.2 mi ESE 3.5 mph - N/A   Overcast
12:35 PM 33.6 °F 29.4 °F 32.2 °F 94% 29.65 in 5.0 mi NNE 4.6 mph - N/A   Overcast
12:55 PM 33.6 °F 29.4 °F 32.2 °F 94% 29.65 in 0.8 mi NE 4.6 mph - N/A   Overcast
1:15 PM 32.9 °F 28.5 °F 32.0 °F 96% 29.64 in 1.0 mi ENE 4.6 mph - N/A   Overcast
1:35 PM 32.9 °F 29.8 °F 31.8 °F 96% 29.64 in 0.2 mi ENE 3.5 mph - N/A   Overcast
1:55 PM 32.9 °F 29.8 °F 32.0 °F 96% 29.63 in 0.8 mi East 3.5 mph - N/A   Overcast
2:15 PM 33.6 °F 29.4 °F 32.2 °F 94% 29.63 in 7.0 mi East 4.6 mph - N/A   Overcast
2:35 PM 34.0 °F 31.0 °F 32.5 °F 94% 29.63 in 10.0 mi ENE 3.5 mph - N/A   Overcast
2:55 PM 34.5 °F 31.6 °F 33.1 °F 94% 29.62 in 10.0 mi SE 3.5 mph - N/A   Overcast
3:15 PM 34.9 °F 32.0 °F 33.4 °F 94% 29.62 in 10.0 mi East 3.5 mph - N/A   Overcast
3:35 PM 35.6 °F 30.7 °F 34.0 °F 94% 29.61 in 10.0 mi East 5.8 mph - N/A   Overcast
3:55 PM 36.1 °F 30.6 °F 34.3 °F 93% 29.60 in 10.0 mi ENE 6.9 mph - N/A   Overcast
4:15 PM 35.4 °F 30.5 °F 33.4 °F 92% 29.59 in 0.5 mi NE 5.8 mph - N/A   Overcast
4:35 PM 34.7 °F 29.6 °F 32.9 °F 93% 29.59 in 0.2 mi East 5.8 mph - N/A   Overcast
4:55 PM 34.2 °F 30.0 °F 32.7 °F 94% 29.58 in 0.2 mi ENE 4.6 mph - N/A   Overcast
5:15 PM 34.0 °F 29.8 °F 32.5 °F 94% 29.57 in 0.2 mi East 4.6 mph - N/A   Overcast
5:35 PM 33.8 °F - 32.2 °F 94% 29.57 in 0.2 mi Calm Calm - N/A   Overcast
5:55 PM 33.4 °F - 32.0 °F 94% 29.57 in 0.2 mi Calm Calm - N/A   Overcast
6:15 PM 33.1 °F - 32.0 °F 96% 29.56 in 0.2 mi Calm Calm - N/A   Overcast
6:35 PM 33.1 °F 30.0 °F 32.0 °F 96% 29.56 in 0.2 mi SE 3.5 mph - N/A   Overcast
6:55 PM 33.1 °F - 32.0 °F 96% 29.55 in 0.5 mi Calm Calm - N/A   Overcast
7:15 PM 33.1 °F 30.0 °F 32.0 °F 96% 29.55 in 0.5 mi North 3.5 mph - N/A   Overcast
7:35 PM 32.9 °F - 32.0 °F 96% 29.55 in 0.5 mi Calm Calm - N/A   Overcast
7:55 PM 32.9 °F - 32.0 °F 96% 29.55 in 0.2 mi Calm Calm - N/A   Overcast
8:15 PM 33.1 °F - 32.0 °F 96% 29.55 in 0.2 mi Calm Calm - N/A   Overcast
8:35 PM 33.3 °F - 32.0 °F 95% 29.54 in 0.2 mi Calm Calm - N/A   Overcast
8:55 PM 33.3 °F - 32.0 °F 95% 29.55 in 0.2 mi Calm Calm - N/A   Overcast
9:15 PM 33.1 °F 27.7 °F 32.0 °F 96% 29.55 in 0.2 mi NNE 5.8 mph - N/A   Overcast
9:35 PM 32.5 °F 28.1 °F 31.8 °F 97% 29.55 in 0.2 mi NNE 4.6 mph - N/A   Overcast
9:55 PM 32.2 °F 25.8 °F 31.5 °F 97% 29.55 in 0.2 mi ENE 6.9 mph - N/A   Overcast
10:15 PM 32.2 °F 28.9 °F 31.3 °F 96% 29.55 in 0.2 mi ENE 3.5 mph - N/A   Overcast
10:35 PM 32.0 °F 28.7 °F 31.1 °F 96% 29.55 in 1.2 mi East 3.5 mph - N/A   Overcast
10:55 PM 32.0 °F 28.7 °F 30.9 °F 96% 29.55 in 10.0 mi NNE 3.5 mph - N/A   Overcast
11:15 PM 31.8 °F 26.2 °F 30.7 °F 96% 29.55 in 10.0 mi ENE 5.8 mph - N/A   Overcast
11:35 PM 31.1 °F 26.4 °F 29.8 °F 95% 29.54 in 7.0 mi East 4.6 mph - N/A   Overcast
11:55 PM 30.7 °F 24.9 °F 29.3 °F 94% 29.54 in 7.0 mi ENE 5.8 mph - N/A   Overcast